Regional Weather Roundup
Issued by NWS

Home | Current Version | Previous Version | Text Only | Print | Product List | Glossary Off
Versions: 1 2 3 4 5 6 7 8 9 10 11 12 13 14 15 16 17 18 19 20 21 22 23 24 25 26 27 28 29 30 31 32 33 34 35 36 37 38 39 40 41 42 43 44 45 46 47 48 49 50

000
ASUS43 KOAX 252002
RWRNE

WEATHER ROUNDUP FOR NEBRASKA
NATIONAL WEATHER SERVICE OMAHA NE
200 PM CST SUN JAN 25 2015

NOTES: SATELLITE DATA IS BEING USED TO AUGMENT CLOUD COVER ABOVE
       12000 FEET.
       "FAIR" INDICATES FEW OR NO CLOUDS BELOW 12,000 FEET WITH NO
       SIGNIFICANT WEATHER AND/OR OBSTRUCTIONS TO VISIBILITY.

  * THESE STATIONS DO NOT REPORT WEATHER SUCH AS RAIN...SNOW OR FOG.

NEZ001>004-019>022-054>056-252100-
NEBRASKA PANHANDLE

CITY           SKY/WX    TMP DP  RH WIND       PRES   REMARKS
SCOTTSBLUFF    CLOUDY    47  34  60 NW7       30.07F
ALLIANCE       CLOUDY    45  35  68 NW14      30.03F
CHADRON        CLOUDY    48  34  58 NW20      30.03F
SIDNEY         CLOUDY    50  30  46 NW21G32   30.08F
$$

NEZ057>060-069>072-079>082-252100-
SOUTHWEST NEBRASKA

CITY           SKY/WX    TMP DP  RH WIND       PRES   REMARKS
NORTH PLATTE   SUNNY     49  23  36 NW16      30.05F
IMPERIAL       SUNNY     54  20  26 NW23G31   30.06F
MCCOOK         SUNNY     52  21  29 N16G29    30.07F
$$

NEZ005>010-023>029-035>040-094-252100-
NORTH CENTRAL NEBRASKA

CITY           SKY/WX    TMP DP  RH WIND       PRES   REMARKS
VALENTINE      MOSUNNY   42  29  59 NW13      30.04F
BROKEN BOW     CLOUDY    43  29  57 N15       30.05F
ORD            CLOUDY    40  28  62 NW16      30.04F WCI  31
$$

NEZ041-046>049-061>064-073>077-083>087-252100-
SOUTH CENTRAL NEBRASKA

CITY           SKY/WX    TMP DP  RH WIND       PRES   REMARKS
GRAND ISLAND   CLOUDY    40  33  76 N7        30.05S
HASTINGS       CLOUDY    43  29  57 N21       30.04F
KEARNEY *      PTSUNNY   45  27  49 N16       30.05F
$$

NEZ011>018-030>034-042>045-252100-
NORTHEAST NEBRASKA

CITY           SKY/WX    TMP DP  RH WIND       PRES   REMARKS
NORFOLK        CLOUDY    39  32  76 NW14      30.01F WCI  31
COLUMBUS *     CLOUDY    39  28  65 N14       30.04F WCI  31
TEKAMAH        CLOUDY    42  33  70 N18       30.01S
$$

NEZ050>053-065>068-078-088>093-252100-
SOUTHEAST NEBRASKA

CITY           SKY/WX    TMP DP  RH WIND       PRES   REMARKS
LINCOLN        CLOUDY    39  31  72 N21       30.04R WCI  29
OMAHA EPPLEY   CLOUDY    41  32  70 N14       29.99R
FALLS CITY     CLOUDY    38  32  79 N18G26    29.97R WCI  28
$$

NEZ044-045-051>053-067-252100-
OMAHA AREA

CITY           SKY/WX    TMP DP  RH WIND       PRES   REMARKS
OMAHA EPPLEY   CLOUDY    41  32  70 N14       29.99R
OFFUTT AFB     PTSUNNY   41  32  70 N14G20    29.99R
$$



USA.gov is the U.S. government's official web portal to all federal, state and local government web resources and services.